Portada
METAR-TAF:

METAR-TAF

Aeropuertos :

Brenner Field

Falls City, Nebraska, Estados Unidos

latitud: 40-04-44N, longitud: 095-35-31W, altitud: 300 m

Observación

El informe se hizo hace 17 minutos, a las 07:53 UTC
Viento 3 kt del este-sureste
Temperatura 16°C
Humedad 77%
Presión 1023 hPa
Visibilidad: 16.1 km
Cielo cubierto a una altura de 8000 ft

METAR: KFNB 310753Z AUTO 12003KT 10SM OVC080 16/12 A3021 RMK AO2 SLP227 T01560117

Hora: 03:10 (08:10 UTC)


TAF: falta

Observaciones y pronósticos meteorológicos de más de 4000 aeropuertos (mensajes METAR y TAF).

Los puntos amarillos y rojos representan las estaciones disponibles.

Ponga el ratón en el punto deseado para ver el nombre de la estación.

Haga clic para ver las observaciones y los pronósticos meteorológicos.

Para cambiar el mapa : haga clic en los botones verdes con una cruz de color negro para hacer un zoom, en el botón verde con un guión para alejar o en las flechas verdes para mapas adyacentes.


METAR-TAF: